Location: *
(42.4275°S, 170.5207°W)
Time: 05:15:13
(UTC+00:00)

Daily predictions for brighter satellites

Satellite Brightness Start Highest point End
(mag) Time Altitude Azimuth Time Altitude Azimuth Time Altitude Azimuth
Cosmos 923 Rocket 4.3 04:24:06 10° N 04:29:16 50° ENE 04:34:29 10° SSE
STARLINK-1295 3.7 04:26:47 10° NW 04:30:59 89° SW 04:35:14 10° SE
Meteor 2-6 Rocket 4.4 04:26:47 10° S 04:32:09 49° ESE 04:37:32 10° NNE
STARLINK-52 4.2 04:29:58 10° SW 04:32:46 25° SSE 04:35:34 10° E
Cosmos 1500 Rocket 3.7 04:30:42 10° N 04:35:06 85° W 04:39:33 10° S
STARLINK-1287 3.7 04:31:45 10° NW 04:35:56 83° SW 04:40:11 10° SE
Cosmos 1782 2.8 04:33:14 10° S 04:37:18 89° SE 04:41:20 10° N
Cosmos 1862 3.8 04:33:50 10° NNE 04:37:36 40° E 04:41:27 10° SSE
Cosmos 2322 Rocket 4.1 04:35:26 10° WNW 04:40:07 26° SW 04:44:52 10° S
SL-4 R/B 1.8 04:38:23 10° SW 04:42:05 72° SSE 04:46:03 10° ENE
Cosmos 1238 Rocket 4.3 04:41:48 10° NE 04:45:07 20° E 04:48:05 10° SE
Cosmos 1805 Rocket 3.7 04:41:07 10° N 04:45:26 57° E 04:49:50 10° SSE
STARLINK-1302 3.8 04:41:44 10° WNW 04:45:55 71° SSW 04:49:59 11° SE
Envisat 4.3 04:43:07 10° SE 04:46:58 21° E 04:50:47 10° NE
STARLINK-1273 3.9 04:46:44 10° WNW 04:50:54 65° SW 04:54:46 12° SE
Cosmos 2123 Rocket 4.0 04:45:25 10° S 04:51:43 87° E 04:57:59 10° N
Meteor 1-27 Rocket 4.2 04:48:15 10° S 04:53:50 41° ESE 04:59:23 10° NE
COSMOS 2428 2.7 04:48:15 10° NNW 04:53:59 81° ENE 04:59:49 10° SSE
USA 234 3.9 04:47:44 10° SE 04:54:01 48° SSW 05:00:18 10° W
Cosmos 1812 3.2 04:51:03 10° S 04:54:46 39° ESE 04:58:25 10° NNE
STARLINK-1288 4.0 04:51:43 10° WNW 04:55:52 60° SSW 04:59:32 13° SE
STARLINK-81 4.2 04:52:26 10° NNW 04:56:05 39° NE 04:58:52 16° ESE
ADEOS Rocket 4.0 04:49:03 10° N 04:56:34 71° WNW 05:04:28 10° SSW
Cosmos 1461 3.7 04:53:20 10° SSW 04:56:48 27° SE 05:00:02 11° ENE
STARLINK-54 4.0 04:54:03 10° NNW 04:57:46 44° NE 05:00:34 16° ESE
STARLINK-1014 4.5 04:54:27 10° NNW 04:58:20 36° NE 05:01:11 16° ESE
STARLINK-77 4.1 04:55:32 10° NNW 04:59:13 41° NE 05:01:54 17° ESE
ATLAS 5 CENTAUR R/B 3.4 04:53:12 10° N 04:59:38 36° ENE 05:04:51 14° SE
STARLINK-1308 4.1 04:56:46 10° WNW 05:00:54 55° SSW 05:04:21 14° SE
STARLINK-1010 4.3 04:57:28 10° NNW 05:01:29 41° NE 05:04:24 17° ESE
Lacrosse 5 rocket 3.3 05:00:40 10° NNE 05:03:15 16° ENE 05:04:37 14° E
STARLINK-1025 4.4 04:59:23 10° NNW 05:03:16 39° NE 05:05:56 18° ESE
STARLINK-60 2.9 05:00:48 10° SW 05:04:06 89° N 05:07:20 10° NE
STARLINK-79 3.9 05:00:23 10° NNW 05:04:07 46° NE 05:06:37 19° ESE
COSMO-SKYMED 1 3.8 05:00:14 10° N 05:04:27 47° W 05:08:45 10° SSW
Cosmos 1624 Rocket 4.4 04:59:41 10° S 05:04:39 40° ESE 05:09:35 10° NE
STARLINK-78 3.9 05:01:59 10° NNW 05:05:44 48° NE 05:08:11 20° ESE
Cosmos 2237 Rocket 2.7 05:01:08 10° N 05:06:23 40° ENE 05:11:03 13° SE
STARLINK-57 3.8 05:03:41 10° NW 05:07:28 53° NE 05:09:54 21° ESE
STARLINK-61 3.7 05:03:38 10° WNW 05:07:35 65° SW 05:10:27 18° SE
CZ-4B R/B 3.4 05:02:36 10° SSE 05:07:59 53° E 05:13:23 10° N
STARLINK-1017 4.2 05:04:13 10° NNW 05:08:11 43° NE 05:10:41 20° ESE
STARLINK-49 3.8 05:05:15 10° NNW 05:09:02 51° NE 05:11:22 21° ESE
Cosmos 1707 Rocket 3.6 05:05:40 10° S 05:10:07 58° E 05:14:27 10° NNE
STARLINK-27 3.7 05:06:50 10° NW 05:10:37 53° NE 05:12:53 22° ESE
STARLINK-1304 4.3 05:06:48 10° WNW 05:10:52 48° SSW 05:13:54 17° SE
STARLINK-74 3.7 05:08:27 10° NW 05:12:16 55° NE 05:14:28 23° ESE
STARLINK-1023 4.1 05:09:08 10° NNW 05:13:09 47° NE 05:15:29 23° ESE
STARLINK-1286 4.4 05:09:07 10° WNW 05:13:11 46° SSW 05:16:08 17° SE
STARLINK-39 3.6 05:10:04 10° NW 05:13:53 57° NE 05:16:02 24° ESE
Meteor 2-20 Rocket 4.5 05:07:56 10° S 05:14:14 86° E 05:20:26 10° N
STARLINK-31 3.6 05:11:42 10° NW 05:15:31 59° NE 05:17:37 25° ESE
STARLINK-69 3.5 05:13:27 10° NW 05:17:18 67° NE 05:19:23 26° ESE
STARLINK-1007 3.9 05:14:04 10° NNW 05:18:07 51° NE 05:20:17 25° ESE
STARLINK-21 3.5 05:14:57 10° NW 05:18:48 64° NE 05:20:47 27° ESE
Cosmos 1371 Rocket 4.1 05:14:23 10° SSW 05:19:47 61° ESE 05:25:06 10° NNE
STARLINK-45 3.4 05:16:45 10° NW 05:20:38 73° NE 05:22:35 28° ESE
STARLINK-70 3.4 05:18:20 10° NW 05:22:13 73° NE 05:24:06 29° ESE
SL-16 R/B 3.5 05:18:20 10° NE 05:22:16 19° E 05:22:28 19° E
STARLINK-1048 3.8 05:18:59 10° NW 05:23:05 57° NE 05:25:03 28° ESE
STARLINK-76 3.4 05:19:52 10° NW 05:23:44 71° NE 05:25:32 30° ESE
STARLINK-71 3.5 05:19:52 10° NW 05:23:55 76° NE 05:25:57 29° ESE
Cosmos 158 Rocket 4.1 05:18:54 10° NNW 05:24:04 83° WSW 05:29:28 10° SSE
Cosmos 1862 Rocket 4.0 05:19:46 10° S 05:24:04 39° ESE 05:28:18 10° NE
STARLINK-23 3.4 05:21:30 10° NW 05:25:23 74° NE 05:27:06 31° ESE
Cosmos 2333 Rocket 3.1 05:21:08 10° NW 05:26:44 49° WSW 05:32:22 10° SSE
Cosmos 1441 Rocket 4.5 05:23:29 10° NNE 05:26:08 24° ENE 05:26:08 24° ENE
STARLINK-32 3.4 05:23:07 10° NW 05:27:00 76° NE 05:28:40 32° ESE
Cosmos 2112 Rocket 4.2 05:22:16 10° NNW 05:27:35 78° WSW 05:32:56 10° SSE
STARLINK-1049 3.7 05:23:54 10° NW 05:28:02 62° NE 05:29:49 32° ESE
Cosmos 405 3.8 05:24:45 10° SSW 05:28:16 53° W 05:31:42 10° N
STARLINK-40 3.4 05:24:48 10° NW 05:28:41 78° NE 05:30:18 34° ESE
Okean O Rocket 1.6 05:25:01 10° SSE 05:29:30 86° ENE 05:33:58 10° NNW
H-2A R/B 2.7 05:26:01 10° S 05:29:57 87° WSW 05:33:51 10° NNW
STARLINK-44 3.4 05:26:22 10° NW 05:30:16 81° NE 05:31:48 35° ESE
Cosmos 1605 Rocket 4.4 05:24:22 10° NNW 05:30:34 67° W 05:36:46 10° S
STARLINK-37 3.4 05:28:13 10° NW 05:32:06 89° NNE 05:33:38 36° SE
Cosmos 2278 Rocket 2.1 05:26:30 10° SSW 05:32:13 71° ESE 05:37:54 10° NNE
Sich 1 3.7 05:28:35 10° NNW 05:32:55 58° W 05:37:22 10° S
STARLINK-29 2.9 05:29:37 10° SW 05:32:57 80° SE 05:33:59 41° ENE
STARLINK-1051 3.6 05:28:52 10° NW 05:33:01 68° NE 05:34:37 36° ESE
STARLINK-36 3.3 05:29:38 10° NW 05:33:31 86° NE 05:34:57 38° SE
STARLINK-68 3.4 05:31:31 10° NW 05:35:24 85° SW 05:36:47 38° SE
STARLINK-63 3.4 05:33:05 10° NW 05:36:59 85° SW 05:38:18 40° SE
SMAP 3.0 05:32:35 10° SSE 05:37:14 66° ENE 05:41:54 10° N
STARLINK-35 3.4 05:34:35 10° NW 05:38:29 87° SW 05:39:43 42° SE
STARLINK-51 3.4 05:36:18 10° NW 05:40:11 84° SW 05:41:22 44° SE
STARLINK-30 3.4 05:37:56 10° NW 05:41:49 82° SW 05:42:55 45° SE
STARLINK-1028 3.5 05:38:47 10° NW 05:42:58 81° NE 05:44:12 45° ESE
STARLINK-72 3.4 05:39:38 10° WNW 05:43:32 79° SW 05:44:35 47° SE
STARLINK-59 3.5 05:43:00 10° WNW 05:46:53 72° SW 05:47:48 49° SSE
STARLINK-1021 3.5 05:43:45 10° NW 05:47:57 88° NE 05:48:58 51° SE
Cosmos 2056 Rocket 3.5 05:42:51 10° SSW 05:48:15 89° WNW 05:53:31 10° NNE
STARLINK-56 3.5 05:44:34 10° WNW 05:48:26 73° SW 05:49:17 51° SSE
STARLINK-73 3.5 05:46:12 10° WNW 05:50:05 70° SW 05:50:52 52° SSE
ATLAS 2AS CENTAUR R/B 3.5 05:44:59 10° SSW 05:50:33 28° SE 05:51:07 28° SE
STARLINK-38 3.6 05:47:52 10° WNW 05:51:45 68° SSW 05:52:27 53° SSE
CZ-2C R/B 3.5 05:53:39 31° SE 05:53:39 31° SE 05:57:14 10° S
STARLINK-1019 3.6 05:48:44 10° NW 05:52:56 85° SW 05:53:46 57° SE
STARLINK-24 3.8 05:49:16 10° WNW 05:53:18 64° SSW 05:54:10 49° SSE
STARLINK-65 3.6 05:49:32 10° WNW 05:53:24 66° SW 05:54:03 54° SSE
STARLINK-53 3.7 05:51:27 10° WNW 05:55:20 62° SSW 05:55:57 53° SSE
STARLINK-25 3.5 05:53:01 10° WNW 05:56:46 63° SSW 05:57:08 59° S
Cosmos 1818 3.7 05:52:25 10° NW 05:57:49 70° SW 06:00:42 28° SSE
STARLINK-1012 3.6 05:53:42 10° WNW 05:57:55 79° SW 05:58:32 62° SSE
Cosmos 1933 Rocket 3.7 05:55:02 10° N 05:58:46 52° ENE 05:58:46 52° ENE
Cosmos 1633 Rocket 3.9 05:57:12 10° NNW 06:01:33 52° WSW 06:05:58 10° S
Shenzhou-11 Module 3.9 05:59:57 10° W 06:01:12 25° W 06:01:12 25° W
YAOGAN 6 2.7 06:03:03 60° SSW 06:03:38 76° WSW 06:07:19 10° NNW
Meteor 1-25 Rocket 4.1 05:59:45 10° N 06:05:16 67° E 06:07:52 32° SSE
BREEZE-M DEB (TANK) 4.3 06:00:37 10° WSW 06:05:16 76° NNW 06:25:31 10° NE
Cosmos 2100 Rocket 4.0 06:01:00 10° N 06:07:15 86° W 06:13:32 10° S
Centaur D AC-29 3.6 06:01:51 10° WNW 06:07:20 17° NNW 06:09:57 12° NNE
Cosmos 2219 Rocket 4.1 06:02:45 10° WNW 06:07:30 27° SW 06:12:20 10° S
STARLINK-1026 3.7 06:03:42 10° WNW 06:07:53 67° SW 06:08:07 65° S
STARLINK-52 4.1 06:05:52 10° WSW 06:08:30 44° W 06:08:30 44° W
STARLINK-50 4.0 06:05:31 10° WNW 06:09:30 53° SSW 06:09:41 52° SSW
STARLINK-1013 3.9 06:08:40 10° WNW 06:12:50 62° SSW 06:12:52 62° SSW
FALCON 9 DEB 4.3 06:10:26 10° SW 06:12:55 42° WSW 06:12:55 42° WSW
STARLINK-1009 4.1 06:13:41 10° WNW 06:17:39 57° SW 06:17:39 57° SW
Cosmos 1452 Rocket 3.9 06:13:26 10° SSW 06:17:29 47° SSE 06:17:29 47° SSE
SL-4 R/B 4.5 06:18:39 10° W 06:21:24 19° NW 06:24:06 11° N
Cosmos 1420 Rocket 4.0 06:16:41 10° SSW 06:22:07 87° WNW 06:24:07 40° NNE
STARLINK-1015 4.3 06:18:43 10° WNW 06:22:26 51° SW 06:22:26 51° SW
Cosmos 2061 Rocket 3.9 06:17:44 10° N 06:24:02 83° E 06:28:11 23° S
Envisat 3.9 06:21:19 10° S 06:26:14 48° WSW 06:31:08 10° NW
Meteor 1-20 Rocket 4.4 06:23:19 10° NNW 06:29:04 76° W 06:32:29 26° S
Feng Yun 1-1 Rocket 4.3 06:27:58 36° S 06:30:16 74° WSW 06:35:43 10° NNW
Cosmos 2297 4.3 06:26:39 10° SSW 06:30:33 42° S 06:30:33 42° S
Helios 1A Rocket 4.0 06:33:10 42° WSW 06:33:23 42° WSW 06:37:13 10° NW
Cosmos 2016 Rocket 4.0 06:28:16 10° N 06:34:34 84° W 06:39:14 20° S
Cosmos 1864 Rocket 4.3 06:29:17 10° N 06:35:26 83° E 06:36:18 67° SSE
Lacrosse 5 rocket 2.7 06:37:31 10° NW 06:40:18 39° WNW 06:40:18 39° WNW
ATLAS 5 CENTAUR R/B 3.2 06:37:19 10° NW 06:44:20 55° SW 06:46:25 41° S
Cosmos 2237 Rocket 3.7 06:45:27 10° WNW 06:50:30 32° SW 06:52:55 23° SSW
Cosmos 1943 Rocket 4.3 06:48:06 10° SSW 06:48:58 14° S 06:48:58 14° S
BREEZE-M DEB (TANK) 4.2 06:45:53 10° WNW 06:59:38 79° WNW 06:59:38 79° WNW
SL-16 R/B 3.0 07:00:10 10° NW 07:04:24 47° WNW 07:04:24 47° WNW
BREEZE M DEB (TANK) 4.1 06:56:17 10° WSW 07:13:12 74° SSW 07:13:12 74° SSW
NOSS 3-4 (A) 4.5 07:08:39 10° SW 07:13:16 42° SSW 07:13:16 42° SSW
ATLAS 2AS CENTAUR R/B 4.0 07:35:20 10° SW 07:38:34 32° SW 07:38:34 32° SW
